Home   Weather   Bari   Past weeks

Flag for Italy Past Weather in Bari, Italy — Yesterday and Last 2 Weeks

59 °F


Feels Like: 58 °F
Forecast: 59 / 68 °F
Wind: 7 mph from West

Location: Bari / Palese Macchie

Current Time: Oct 22, 2016 at 3:50:07 AM

Latest Report: Oct 22, 2016 at 3:20 AM

Visibility: 10 mi

Pressure: 29.89 "Hg

Humidity: 88%

Dew Point: 55 °F

Location of BariLocation

Past Weather in Bari — Graph


Bari Temperature Yesterday

Maximum temperature yesterday: 73 °F (at 11:50 AM)
Minimum temperature yesterday: 54 °F (at 5:50 AM)
Average temperature yesterday: 62 °F

High & Low Weather Summary for the Past Weeks

High81 °F (Oct 15, 3:50 AM)100% (Oct 7, 8:50 AM)30.24 "Hg (Oct 7, 8:50 AM)
Low45 °F (Oct 13, 5:20 AM)47% (Oct 20, 12:50 PM)29.65 "Hg (Oct 7, 2:50 PM)
Average63 °F79%29.99 "Hg
* Reported Oct 7 1:20 AM — Oct 22 1:50 AM, Bari, Weather by CustomWeather, © 2016

Note: Actual official high and low records may vary slightly from our data, if they occured in-between our weather recording intervals... More about our weather records


Bari Weather History for the Previous 24 Hours

Scroll right to see more
Time TempWeatherWind HumidityBarometerVisibility
1:50 AM
Sat, Oct 22
57 °FClear.3 mph94%29.89 "Hg10 mi
1:20 AM57 °FClear.6 mph94%29.89 "Hg10 mi
12:50 AM57 °FClear.6 mph94%29.89 "Hg10 mi
12:20 AM57 °FClear.6 mph94%29.89 "Hg10 mi
11:50 PM
Fri, Oct 21
59 °FPassing clouds.6 mph94%29.89 "HgN/A
11:20 PM59 °FPassing clouds.7 mph94%29.89 "HgN/A
10:50 PM59 °FPassing clouds.6 mph94%29.86 "HgN/A
10:20 PM59 °FPassing clouds.3 mph100%29.86 "HgN/A
9:50 PM61 °FPassing clouds.2 mph94%29.89 "Hg6 mi
9:20 PM61 °FLight rain. Passing clouds.5 mph94%29.89 "Hg6 mi
8:50 PM61 °FRain. Passing clouds.3 mph94%29.89 "Hg6 mi
8:20 PM61 °FRain. Passing clouds.3 mph94%29.89 "Hg6 mi
7:50 PM61 °FRain. Passing clouds.1 mph94%29.89 "Hg6 mi
7:20 PM61 °FRain. Passing clouds.2 mph94%29.89 "Hg6 mi
6:50 PM61 °FRain. Passing clouds.7 mph94%29.89 "Hg6 mi
6:20 PM63 °FRain. Passing clouds.9 mph88%29.89 "HgN/A
5:50 PM68 °FLight rain. Passing clouds.5 mph69%29.86 "HgN/A
5:20 PM66 °FPassing clouds.2 mph68%29.86 "HgN/A
4:50 PM68 °FPassing clouds.3 mph64%29.86 "HgN/A
4:20 PM70 °FPassing clouds.5 mph57%29.86 "HgN/A
3:50 PM68 °FPassing clouds.3 mph64%29.83 "HgN/A
3:20 PM70 °FScattered clouds.2 mph60%29.86 "HgN/A
2:50 PM72 °FScattered clouds.1 mph50%29.86 "HgN/A
2:20 PM72 °FScattered clouds.1 mph53%29.86 "HgN/A
1:50 PM72 °FScattered clouds.2 mph50%29.86 "HgN/A
1:20 PM70 °FScattered clouds.7 mph53%29.86 "HgN/A
12:50 PM72 °FPassing clouds.9 mph53%29.86 "HgN/A
12:20 PM73 °FSunny.9 mph50%29.86 "Hg10 mi
11:50 AM73 °FPassing clouds.8 mph47%29.86 "HgN/A
11:20 AM72 °FSunny.3 mph57%29.86 "Hg10 mi
10:50 AM68 °FSunny.2 mph64%29.86 "Hg10 mi
10:20 AM66 °FSunny.3 mph64%29.86 "Hg10 mi
9:50 AM64 °FSunny.3 mph64%29.86 "Hg10 mi
9:20 AM63 °FSunny.1 mph73%29.86 "Hg10 mi
8:50 AM59 °FSunny.2 mph82%29.86 "Hg10 mi
8:20 AM55 °FSunny.3 mph88%29.86 "Hg10 mi
7:50 AM54 °FSunny.3 mph88%29.86 "Hg10 mi
7:20 AM54 °FSunny.2 mph88%29.83 "Hg10 mi
6:50 AM54 °FPassing clouds.5 mph88%29.83 "HgN/A
6:20 AM54 °FClear.3 mph88%29.83 "Hg10 mi
5:50 AM54 °FClear.6 mph88%29.83 "Hg10 mi
5:20 AM55 °FClear.3 mph82%29.86 "Hg10 mi
4:50 AM55 °FClear.3 mph82%29.86 "Hg10 mi
4:20 AM55 °FPassing clouds.5 mph88%29.86 "HgN/A
3:20 AM57 °FClear.6 mph82%29.86 "Hg10 mi
Weather by CustomWeather, © 2016

See weather overviewHow to use our weather pages